Theta_e
300 293 291 293 295 295 293 291 290 292 296 293 293 294 296 298 298 297 298 298 300 302 305 306 305 306 312 319 322 325 323 322 325 323 317 313 311 309 308 310 311 314 319 320
295 291 297 298 297 294 293 289 289 293 296 293 293 293 297 298 299 300 299 300 300 301 303 305 304 305 309 317 320 322 323 323 325 321 317 313 311 308 306 305 307 308 310 311
292 294 299 296 294 292 291 289 289 289 293 293 290 289 293 297 299 301 302 303 302 302 302 304 303 303 306 310 317 319 321 322 322 320 317 303 301 300 299 300 300 302 304 304
294 298 295 293 292 294 288 293 293 291 288 283 291 281 290 295 296 298 300 300 300 301 303 304 303 302 303 305 311 317 317 318 316 314 311 304 303 304 303 301 300 299 300 301
292 293 292 292 293 295 291 294 292 291 288 287 287 283 287 293 292 295 298 298 300 302 302 302 302 303 302 305 307 312 314 314 312 311 308 304 303 306 303 301 298 296 296 296
294 296 295 294 294 295 296 293 292 290 288 281 286 286 284 289 293 295 297 298 301 299 298 299 300 302 301 304 306 309 310 310 308 309 305 303 303 304 300 294 295 294 293 293
293 292 294 296 292 294 293 289 281 280 279 279 287 285 288 294 296 296 298 299 299 299 297 296 297 298 299 302 305 306 307 306 306 306 304 305 305 303 300 296 294 291 290 289
285 284 292 294 293 290 290 290 282 276 278 280 284 282 288 296 298 299 301 298 300 299 299 298 298 298 299 302 304 304 304 304 305 304 303 304 305 302 301 298 297 292 293 291
286 286 294 294 295 295 289 286 292 284 277 278 283 288 293 296 297 298 298 298 298 298 298 298 299 299 299 301 302 303 303 303 303 302 302 302 303 301 299 298 296 293 291 290
291 285 292 291 294 293 291 293 284 284 274 274 280 281 286 292 293 296 296 298 297 299 298 298 298 298 299 301 301 303 303 302 302 302 302 301 300 299 297 295 292 291 286 285
293 290 286 290 288 289 289 287 289 289 285 278 277 281 291 293 296 295 297 299 299 298 298 297 297 298 299 300 300 301 301 301 300 300 300 299 297 297 293 291 288 286 284 284
295 292 283 287 293 295 293 290 290 283 281 283 282 285 295 296 296 297 296 296 295 296 298 296 296 297 297 298 299 299 299 299 299 299 299 297 296 294 290 288 285 284 284 284
296 289 280 284 289 291 289 291 293 292 287 284 281 285 294 295 294 294 294 293 295 294 295 295 295 295 296 297 297 297 298 298 298 298 297 295 293 291 289 287 284 283 283 282
296 289 287 283 288 291 287 288 291 291 285 285 285 288 293 293 295 294 293 294 294 294 295 294 294 294 295 297 297 297 297 298 298 297 296 294 292 290 288 285 283 282 281 281
293 284 287 288 290 290 286 287 290 289 290 286 289 290 294 296 296 298 295 295 293 293 293 294 294 294 295 295 296 296 296 297 298 297 296 294 291 289 286 283 282 281 281 281
291 284 286 283 288 289 286 289 288 290 291 290 290 289 297 298 299 297 298 296 295 296 296 295 295 295 294 295 295 296 296 296 296 296 293 291 289 287 285 282 281 280 280 280
286 285 283 276 285 284 278 283 287 289 291 292 288 293 298 296 297 297 299 298 298 298 299 297 296 295 294 296 295 295 296 294 292 290 289 288 287 285 283 282 281 280 279 280
285 285 285 278 281 275 283 291 293 291 292 294 294 295 294 296 298 297 298 297 296 298 299 299 298 297 296 295 295 295 292 291 290 288 288 287 285 284 282 281 280 279 279 279
291 285 279 276 272 280 283 286 286 287 286 287 287 288 289 292 294 294 293 294 294 295 296 295 295 296 297 297 295 292 290 290 289 289 287 286 285 283 282 280 280 279 279 279
286 287 282 274 270 266 280 285 290 293 281 285 287 287 286 290 285 291 291 291 293 293 292 291 290 290 290 290 289 289 288 287 287 288 287 286 285 284 282 281 280 279 278 278
280 281 278 279 277 277 282 284 288 281 280 284 286 286 286 284 287 288 290 290 290 291 291 291 287 287 286 286 286 286 286 285 286 284 284 283 284 284 283 281 280 279 279 280
278 277 277 280 278 275 283 285 284 285 287 286 284 285 285 286 287 288 288 288 289 289 287 286 284 285 284 284 283 284 284 285 283 283 283 283 283 283 282 281 279 279 279 279
272 278 276 279 277 284 283 285 289 289 286 284 283 285 286 285 287 288 288 288 288 287 285 284 282 282 282 282 282 281 282 282 281 280 279 280 280 280 281 280 279 278 278 277
278 281 276 276 280 282 284 286 286 287 284 285 286 285 286 286 286 286 287 287 286 285 284 281 281 282 281 280 280 280 280 281 279 278 276 277 279 278 278 281 280 279 278 277
278 280 276 276 281 282 285 288 287 286 286 285 285 285 286 285 286 286 286 286 286 284 281 279 279 279 279 279 278 276 277 277 277 277 277 277 278 278 279 279 280 279 280 280
280 279 277 274 282 282 282 285 283 283 284 285 285 285 285 284 285 284 284 285 284 285 280 278 277 276 276 275 276 278 280 280 280 278 279 279 279 277 276 277 277 284 283 284
Wind_Speed
7 4 7 10 11 9 9 5 9 7 5 3 7 11 11 9 10 10 10 10 10 10 10 11 13 12 9 9 10 13 13 9 8 7 7 4 4 3 2 3 4 4 6 10
3 7 9 7 5 3 5 3 9 9 5 2 8 12 17 12 12 17 11 11 11 9 10 10 11 12 12 10 9 10 14 14 10 8 5 4 5 2 3 3 3 3 6 7
8 1 11 7 3 1 6 7 7 8 3 6 4 8 13 7 12 18 16 15 11 12 10 9 10 12 10 11 12 10 11 12 10 11 8 5 6 4 2 2 2 3 5 5
8 9 3 3 5 6 6 3 10 5 3 4 4 8 7 14 14 8 10 11 10 11 10 8 9 10 10 9 8 9 9 10 8 9 9 10 5 6 4 5 5 5 6 7
4 3 7 7 6 7 3 3 2 4 4 6 6 5 8 12 10 13 12 9 9 9 8 7 7 8 7 9 8 8 8 9 8 9 10 8 5 4 4 6 8 6 4 5
1 1 2 3 5 1 7 4 3 1 2 8 9 9 6 8 9 10 7 5 8 7 6 7 6 7 4 6 8 8 9 8 9 8 9 9 8 7 8 6 7 6 5 4
7 8 3 2 7 5 3 5 2 2 1 11 4 7 8 5 4 3 6 2 6 7 7 5 5 4 4 6 5 6 7 7 8 8 7 8 8 9 10 9 7 8 5 3
10 5 13 9 10 9 11 8 8 8 6 6 3 10 7 8 4 4 8 2 8 8 8 8 8 6 7 8 8 7 7 7 8 8 7 7 7 5 5 7 6 5 6 6
5 6 4 5 3 9 6 9 6 3 2 3 6 11 11 6 10 9 9 5 8 9 9 9 8 8 8 8 9 9 8 7 8 8 6 7 6 6 6 7 6 6 5 6
4 6 2 2 4 5 4 1 2 3 3 5 8 7 12 8 8 13 8 9 6 7 8 8 7 7 6 7 7 8 8 8 8 8 7 6 6 6 6 6 7 8 7 7
4 5 1 4 7 10 5 4 5 5 6 5 7 9 3 2 5 5 1 5 6 7 8 8 7 6 5 6 7 7 8 8 8 7 7 7 6 7 7 6 6 7 7 9
1 1 4 10 5 12 12 11 12 5 3 5 6 20 0 6 5 7 6 5 5 5 4 8 8 7 6 7 7 7 7 8 8 8 7 7 7 7 8 7 7 7 8 8
1 3 3 6 2 3 4 7 12 15 2 11 9 22 3 5 4 3 2 2 0 1 4 4 5 6 6 6 6 6 6 6 6 7 8 7 7 7 7 7 8 7 8 8
4 4 6 7 6 5 4 4 7 13 9 21 17 31 15 3 7 4 4 4 5 6 6 5 5 6 7 7 7 7 7 7 7 6 7 8 8 8 7 7 8 8 8 10
5 6 6 10 10 4 5 8 11 11 18 18 26 17 21 9 6 7 3 5 3 2 4 6 7 7 8 8 7 7 7 7 8 9 10 11 10 9 9 9 8 7 9 9
2 3 2 4 6 4 6 11 12 16 17 16 19 23 16 16 15 6 6 4 6 6 7 7 8 8 8 8 8 7 8 9 8 9 9 7 8 9 10 9 9 9 9 9
4 3 3 4 3 1 7 10 13 7 8 11 14 24 14 15 10 3 10 7 6 7 6 7 8 8 8 10 9 11 10 7 9 8 8 8 9 10 10 9 9 10 10 10
5 3 3 3 2 6 7 2 7 14 10 9 15 12 8 8 9 6 8 10 13 15 16 11 8 7 7 4 6 7 7 8 9 9 9 9 11 11 11 11 11 10 9 12
11 4 2 3 4 7 11 7 7 8 3 4 4 7 7 12 7 2 10 8 6 7 9 9 7 8 9 8 7 7 7 8 10 13 12 12 13 12 12 12 12 10 10 9
8 5 4 3 4 5 4 3 2 4 1 3 2 4 6 9 5 3 10 10 10 7 4 6 8 6 7 8 8 4 6 6 9 8 9 9 10 12 13 12 12 8 7 8
6 5 14 10 6 8 1 4 4 6 2 3 1 3 5 3 3 7 7 8 6 7 8 6 6 5 7 7 6 6 5 7 5 5 6 7 8 9 9 9 8 10 9 9
7 7 6 7 7 11 1 4 2 4 0 2 2 2 4 6 8 8 8 9 10 9 6 5 5 5 5 4 2 5 6 4 3 5 6 8 8 7 8 10 8 9 9 9
3 7 6 9 6 3 0 6 4 3 2 1 2 5 6 7 8 9 7 7 8 10 9 5 5 7 5 2 1 3 4 1 3 4 3 4 5 5 6 9 9 8 8 7
4 2 3 5 3 4 3 3 4 4 4 5 6 6 5 8 8 9 10 8 5 6 6 3 6 9 9 4 1 1 1 3 3 4 4 4 5 5 5 5 7 7 7 6
5 4 4 4 4 3 4 5 4 4 5 6 7 5 8 7 8 8 7 9 7 5 3 2 3 3 4 5 3 2 3 4 5 4 3 3 3 3 4 4 6 6 7 9
5 4 4 5 2 1 6 4 5 6 6 7 7 8 6 4 8 6 7 7 5 10 4 4 4 5 4 1 1 4 5 6 5 6 5 4 4 2 3 4 2 11 10 16
Wind_Direction
205 195 196 221 214 246 290 341 314 326 155 207 239 268 264 268 277 267 252 246 237 231 211 195 189 184 187 185 174 164 168 178 167 147 133 135 148 143 130 147 145 143 150 158
118 229 237 234 51 8 323 278 281 294 90 149 271 272 278 256 245 249 243 248 247 248 224 209 185 177 174 177 178 176 178 178 179 160 146 130 134 132 119 125 131 145 131 146
200 141 210 222 167 239 243 238 260 262 308 209 275 269 248 279 237 252 256 254 243 245 228 221 178 177 166 176 179 183 180 179 174 153 139 97 85 77 107 160 143 159 136 135
229 241 159 181 228 184 249 278 226 259 324 255 150 280 294 301 288 243 246 237 225 233 236 201 169 170 177 185 164 169 169 171 163 156 152 160 170 164 180 156 148 154 153 149
206 226 171 194 173 176 219 2 91 201 238 304 211 257 252 220 260 262 246 253 235 216 171 175 151 175 160 159 170 166 161 160 159 166 155 165 174 167 140 136 145 144 137 146
170 280 240 178 55 136 134 86 75 74 198 265 180 216 223 215 230 258 238 244 162 126 99 92 107 125 153 154 157 159 163 160 156 162 157 170 180 161 143 137 158 162 157 161
187 193 150 141 91 22 191 147 226 294 173 242 156 248 235 191 245 272 292 184 161 144 138 141 131 130 153 148 143 148 164 164 158 160 177 186 189 162 160 162 165 160 154 168
197 214 156 189 197 171 196 180 175 200 197 258 354 243 261 222 313 308 288 227 162 159 168 169 171 174 183 164 162 165 184 171 160 167 187 198 189 156 154 159 152 162 173 164
190 238 100 153 134 146 200 214 253 304 54 1 225 269 282 208 232 255 262 219 197 185 169 165 166 178 179 175 176 174 181 186 163 170 188 188 186 153 159 156 144 152 139 138
268 281 175 97 70 303 177 237 139 266 203 235 260 264 245 316 273 245 236 234 229 197 178 163 161 187 190 171 172 181 175 181 168 172 175 172 165 155 149 140 146 149 139 142
171 190 157 126 201 172 164 235 227 173 184 182 282 258 180 101 352 195 282 4 330 214 162 162 169 174 185 170 173 184 175 171 168 170 170 164 166 163 144 147 147 137 133 149
270 330 247 216 201 210 215 220 203 170 243 210 224 262 190 100 55 40 31 53 40 18 176 155 156 168 196 188 180 183 180 179 173 170 169 170 166 162 151 154 153 145 154 160
43 339 309 311 147 23 240 220 228 233 255 234 219 260 13 97 109 148 157 120 331 117 100 113 146 178 201 202 193 200 191 188 180 166 166 167 167 163 162 155 152 151 152 153
86 169 213 245 76 18 306 307 263 239 234 242 238 264 246 270 313 287 224 209 200 210 186 176 179 200 206 209 199 198 192 178 172 173 177 171 168 162 159 150 151 156 160 157
142 213 213 256 273 242 221 248 275 291 269 248 262 262 272 277 302 348 243 214 183 229 235 228 218 210 208 208 202 200 200 186 179 184 191 186 166 160 156 156 158 156 162 163
125 218 194 274 248 194 246 241 251 243 244 274 287 277 310 305 327 349 344 344 331 303 264 237 225 218 222 206 204 195 197 196 181 191 204 177 166 160 160 157 160 161 162 159
142 152 166 255 137 303 283 219 206 209 217 219 242 261 286 285 294 315 282 298 291 296 277 262 257 237 211 203 191 213 206 174 186 182 189 180 162 163 162 158 163 171 170 163
153 162 169 254 98 227 239 159 174 203 235 223 249 291 330 310 307 298 21 6 3 356 360 22 4 329 286 254 200 217 193 193 187 188 186 171 167 167 164 166 173 171 173 177
199 152 238 232 204 292 306 257 182 182 182 359 38 2 332 322 273 99 17 359 334 340 350 342 351 332 325 331 273 204 197 198 191 199 187 179 176 174 170 177 177 173 171 180
202 225 208 148 221 227 259 8 25 108 176 321 60 350 335 344 18 342 343 339 339 339 324 342 346 332 334 327 322 251 223 201 212 209 201 184 179 178 179 176 171 171 175 174
164 178 217 225 233 276 223 301 313 182 232 302 52 297 332 348 251 296 317 319 313 303 309 337 342 324 312 317 317 275 252 230 218 168 158 162 176 182 178 168 161 157 168 166
164 165 190 202 209 247 103 43 144 211 320 306 327 225 267 270 286 292 301 298 314 317 316 305 302 302 305 316 341 296 273 266 193 167 161 162 164 160 162 162 156 159 166 168
263 189 188 172 207 166 53 153 181 165 153 270 263 257 223 266 273 290 283 281 297 309 317 326 334 319 314 321 9 297 279 172 114 107 124 131 127 130 146 154 157 160 166 168
269 144 160 60 1 128 133 106 134 172 201 253 245 270 275 259 279 279 291 295 286 289 315 328 337 333 326 313 331 317 320 92 91 109 106 112 128 127 139 156 164 170 171 169
198 100 170 271 318 11 92 135 172 239 258 281 287 243 250 270 272 257 274 290 287 278 286 277 276 264 290 310 292 157 137 124 115 106 102 105 98 135 157 174 176 173 180 183
173 165 169 221 14 115 262 295 347 320 295 284 289 300 298 232 278 298 280 277 290 304 307 309 289 281 278 204 280 292 158 146 147 141 148 158 134 151 163 150 149 201 192 202